Theta_e
291 290 290 290 290 290 290 289 287 283 286 286 287 290 291 291 295 296 293 301 305 306 306 306 306 307 308 309 309 311 313 314 314 316 316 318 320 322
292 290 289 289 290 290 289 289 288 286 286 287 287 289 291 295 296 296 294 302 302 304 305 308 306 306 306 307 308 309 310 311 311 313 314 315 316 319
289 289 290 289 289 289 289 289 288 287 287 289 288 289 289 290 292 292 294 292 294 303 304 305 305 306 306 306 307 307 308 309 310 311 311 312 314 315
289 289 289 293 289 288 288 288 288 288 287 287 288 287 288 289 290 289 294 296 294 301 304 304 304 305 306 306 307 307 308 308 308 309 310 311 312 314
289 289 289 289 288 288 288 288 288 291 287 285 287 287 288 288 289 291 292 292 296 301 304 304 304 305 305 305 307 308 308 308 307 307 308 309 310 312
291 291 291 290 288 287 288 288 289 288 287 287 288 288 289 291 290 289 290 292 293 297 300 302 303 304 305 305 305 306 307 307 306 307 308 307 308 310
291 291 292 293 299 298 294 293 294 292 289 290 292 291 292 291 291 291 292 293 294 292 293 294 294 295 296 301 302 304 305 305 305 307 307 307 308 307
293 289 289 295 294 299 299 300 298 294 293 292 292 291 292 293 294 292 292 291 288 295 291 292 292 293 294 295 301 303 304 304 306 306 307 307 308 307
287 288 289 292 294 292 296 299 298 299 299 295 293 291 292 293 293 291 292 291 290 294 293 291 291 291 294 297 302 303 304 305 306 306 306 307 307 307
290 291 291 290 291 293 292 292 294 294 293 294 293 293 293 293 293 293 292 293 294 295 296 291 294 292 293 294 301 303 304 305 305 305 306 306 307 307
292 292 291 290 295 299 294 294 294 294 298 300 300 301 301 301 300 297 294 292 290 292 295 293 292 291 292 293 295 300 302 304 305 305 306 306 306 306
292 290 295 294 298 299 294 293 292 292 293 294 294 294 297 296 299 296 294 291 291 289 291 291 289 288 286 291 293 295 295 301 304 305 305 306 305 301
290 291 293 296 297 298 299 295 294 296 296 294 292 292 293 293 293 294 293 292 290 288 291 293 289 288 290 290 290 291 291 293 295 298 304 305 304 303
290 291 290 296 298 297 296 296 296 296 291 288 287 287 288 287 289 291 293 293 294 293 293 293 291 292 291 290 289 292 290 292 293 294 297 302 305 304
291 293 295 296 297 293 293 294 294 289 287 284 283 284 285 286 289 288 289 290 291 292 294 290 291 292 292 291 291 292 291 292 295 294 293 295 297 297
292 290 293 294 293 291 290 289 288 287 286 286 286 287 286 285 285 288 287 288 287 288 291 292 293 292 290 291 293 291 293 292 293 294 294 295 298 300
293 290 287 286 286 286 287 288 288 288 286 285 284 285 285 285 287 288 287 287 285 285 286 289 291 291 290 290 290 292 293 292 293 294 294 295 295 299
288 284 284 285 285 285 286 286 287 287 285 285 284 284 284 286 287 287 287 286 285 285 286 288 289 289 290 291 295 291 292 292 294 294 294 293 291 293
284 284 284 284 285 285 286 286 285 286 286 285 284 284 285 285 287 287 286 286 285 286 287 288 289 288 285 284 290 296 291 292 294 293 293 293 293 294
284 285 284 284 285 285 286 286 286 286 284 284 284 284 285 285 286 286 286 285 285 286 286 288 288 287 285 285 286 290 294 293 293 292 292 294 296 299
284 285 285 285 285 285 285 286 286 286 286 285 286 285 286 286 286 286 286 287 287 287 286 287 289 293 291 291 287 288 291 294 296 295 294 294 294 294
284 285 285 285 285 285 286 286 285 286 285 285 284 285 286 286 286 285 285 285 286 286 287 289 291 291 289 287 286 287 289 293 296 297 297 297 294 291
285 285 285 285 286 286 286 286 285 285 285 285 285 285 286 285 286 286 286 287 287 287 287 288 290 291 288 288 288 288 288 291 293 293 296 298 298 298
Wind_Speed
2 2 2 2 2 2 2 3 4 4 8 1 3 4 5 4 7 6 5 11 16 17 16 16 16 16 19 21 20 20 19 18 13 16 19 19 18 16
2 3 3 2 4 3 3 3 4 4 10 3 5 5 5 5 7 9 5 10 11 15 17 16 18 20 21 22 21 21 20 17 19 20 18 18 20 19
3 3 5 4 4 4 3 3 4 3 8 6 4 5 4 6 6 5 6 5 6 19 19 19 18 19 20 21 21 20 21 19 19 20 21 21 21 21
4 4 5 4 5 5 4 6 5 5 5 10 4 4 6 6 6 5 5 6 5 11 17 19 20 22 21 20 18 20 19 20 21 21 22 22 21 21
4 4 5 5 5 4 5 5 5 6 4 4 6 2 3 2 3 4 4 4 6 15 20 22 21 22 22 21 19 19 19 18 20 21 22 23 21 20
4 4 5 5 6 7 8 8 6 3 3 4 4 4 4 5 3 3 7 5 9 7 12 15 19 19 21 22 22 21 14 17 22 21 20 22 22 21
5 5 5 10 22 17 9 7 7 6 4 6 8 10 9 8 8 4 7 7 8 3 6 7 6 7 7 14 17 20 18 18 20 23 22 21 21 23
5 5 6 14 13 21 22 23 19 9 10 8 7 8 9 8 8 5 7 7 7 3 4 8 4 6 6 5 15 19 21 21 20 21 20 21 21 22
5 5 6 8 15 9 17 23 21 23 22 11 8 8 9 8 8 10 11 10 11 9 6 10 3 5 5 8 18 20 21 21 20 18 18 19 20 22
6 8 10 9 9 13 11 10 11 10 11 9 9 10 9 10 9 11 11 10 9 8 7 7 3 5 5 6 17 20 22 19 17 17 19 18 19 20
7 7 8 9 17 23 13 10 10 10 12 20 20 20 20 20 15 6 6 7 6 5 5 7 8 7 5 8 8 21 21 20 19 18 18 16 16 19
8 7 16 16 22 22 14 10 10 11 8 10 10 10 11 10 18 9 4 6 4 3 5 6 3 3 4 5 7 8 8 17 19 17 18 17 16 5
8 6 6 18 22 23 22 9 9 10 10 5 4 6 5 6 5 5 6 7 7 9 6 1 2 4 5 5 4 5 4 5 6 8 15 17 16 10
7 7 8 19 23 21 16 20 22 18 2 3 4 5 5 5 5 4 5 4 4 5 4 5 4 5 6 6 6 4 4 5 4 7 5 11 17 17
8 14 23 22 19 14 17 21 16 4 4 4 4 5 4 5 5 3 6 7 8 8 7 6 7 8 7 8 4 4 4 4 4 4 4 4 5 4
14 11 14 13 15 13 10 8 5 4 5 5 5 6 5 3 4 4 5 5 5 6 6 9 9 8 8 8 8 7 8 5 2 4 4 4 5 6
16 4 4 4 6 6 6 6 5 5 4 4 4 5 4 5 6 5 4 5 6 6 6 6 8 9 8 10 10 8 7 7 6 4 3 4 4 6
6 3 6 6 6 6 6 6 5 8 5 4 4 4 6 5 6 5 5 5 6 7 7 7 6 6 7 8 16 9 9 8 7 8 8 8 4 4
3 5 7 7 7 7 6 6 7 5 5 5 5 6 6 6 8 5 6 5 7 7 8 7 6 7 8 11 6 14 10 9 7 9 8 7 8 7
5 7 7 8 7 7 7 7 6 6 5 6 6 6 6 6 6 6 6 7 7 8 8 8 8 9 10 11 9 7 14 11 10 10 8 6 8 12
7 8 8 8 8 8 7 7 7 8 6 6 6 6 6 6 6 6 6 12 13 8 10 9 9 18 10 7 7 8 9 16 14 11 9 8 8 7
8 9 8 8 8 8 8 8 7 8 5 6 8 7 6 6 7 7 7 8 8 8 9 9 9 7 7 9 10 10 7 8 13 14 14 10 5 6
9 9 9 9 8 8 8 8 8 7 7 7 7 7 6 6 6 7 7 8 9 9 10 10 8 7 8 9 11 8 11 10 5 8 6 7 7 2
Wind_Direction
258 249 217 247 235 233 206 176 185 284 288 191 245 255 278 295 289 312 300 299 300 293 290 281 278 279 283 286 285 281 276 277 279 286 274 278 278 284
275 285 284 261 265 250 236 224 197 216 281 201 245 242 255 271 278 282 275 304 312 311 296 285 281 279 277 278 273 274 270 272 277 279 275 276 273 274
316 294 288 281 274 272 261 248 244 218 265 276 234 247 251 255 270 267 267 283 282 288 281 282 288 290 280 275 268 264 265 264 265 268 271 271 271 270
297 302 288 289 284 270 253 248 233 236 226 267 265 245 236 245 237 248 267 277 254 267 282 281 279 274 278 278 283 273 260 266 264 266 268 268 267 266
293 306 296 301 294 283 273 265 256 264 245 246 270 247 254 245 272 268 260 265 268 278 281 281 277 280 273 272 269 269 262 255 257 262 265 268 271 273
273 274 280 282 276 277 272 266 259 248 270 250 248 252 235 257 226 229 284 262 272 270 272 274 276 270 274 272 267 266 264 258 257 253 254 259 263 266
279 289 282 284 297 292 292 287 265 261 248 255 271 274 272 273 262 257 267 272 275 242 270 262 259 259 263 280 276 279 277 269 275 259 247 245 250 256
301 284 271 297 294 293 294 297 293 274 265 263 265 271 271 264 263 255 266 268 277 216 249 265 226 252 256 248 255 264 271 268 260 258 253 244 241 245
263 271 282 286 295 283 285 288 291 292 288 279 278 272 266 248 237 246 241 244 252 254 252 274 205 251 249 256 260 263 263 266 265 259 255 251 247 243
261 300 293 283 275 284 270 265 267 268 269 271 261 258 244 256 233 238 244 252 246 244 233 252 240 252 261 253 262 267 269 266 259 260 257 247 243 239
301 283 276 272 278 288 284 293 279 272 272 279 280 281 291 295 294 269 244 232 239 220 228 252 255 248 232 260 259 264 264 263 261 257 250 245 242 236
287 277 283 289 293 298 297 286 280 284 271 269 275 284 285 282 287 277 287 284 268 258 219 201 226 186 277 244 242 246 253 256 257 252 240 235 230 213
291 284 275 290 292 295 303 305 287 286 295 329 308 273 271 275 274 276 276 245 253 252 227 113 255 265 240 263 265 278 243 262 254 253 242 228 218 204
291 284 271 285 299 311 318 313 309 315 305 268 261 260 259 259 259 262 295 301 285 271 265 219 252 253 267 275 271 262 257 250 226 241 213 220 223 215
294 292 303 308 308 309 299 301 318 321 288 263 262 257 242 241 258 256 254 252 242 236 232 214 233 251 252 269 247 257 256 265 225 214 199 199 205 190
289 287 287 301 300 299 308 306 288 268 264 265 271 277 254 258 254 240 255 259 265 270 251 248 240 250 264 266 267 240 252 250 277 222 213 204 209 210
310 342 302 296 302 302 295 287 277 271 267 265 267 269 260 249 261 250 240 260 263 270 265 261 258 254 253 259 264 253 247 239 244 245 201 229 234 211
324 296 304 293 280 281 282 283 267 280 265 263 257 259 269 263 258 253 248 250 263 266 268 267 256 259 256 253 236 242 242 237 228 232 228 228 231 236
284 285 282 279 279 274 271 272 279 269 261 262 260 262 263 260 275 256 250 254 259 262 262 262 253 249 254 261 254 226 237 238 220 220 215 212 231 241
280 277 282 290 286 284 282 279 277 265 247 261 261 258 256 261 264 257 253 253 258 263 266 257 248 243 245 254 261 251 220 236 217 218 208 216 225 235
292 289 284 285 285 283 280 278 274 279 252 264 270 266 262 259 258 257 261 268 269 270 271 264 254 252 254 253 247 248 249 251 224 212 208 214 220 215
283 284 281 276 272 270 273 271 267 271 264 262 271 262 257 253 258 263 259 262 263 263 265 270 274 259 245 238 242 244 249 238 215 204 195 188 202 212
289 286 284 279 272 266 263 262 260 260 264 261 262 262 256 256 256 258 261 264 268 274 275 278 273 260 244 236 228 229 218 247 182 200 208 208 212 68